Time,TemperatureF,DewpointF,PressureIn,WindDirection,WindDirectionDegrees,WindSpeedMPH,WindSpeedGustMPH,Humidity,HourlyPrecipIn,Conditions,Clouds,dailyrainin,SoftwareType,DateUTC
2013-09-03 00:05:00,72.3,71.4,29.74,SSE,149,0.0,0.0,97,0.00,,,0.00,Wunderground v.1.15,2013-09-03 04:05:00,
2013-09-03 00:10:00,72.3,71.1,29.74,SSE,150,0.0,0.0,96,0.00,,,0.00,Wunderground v.1.15,2013-09-03 04:10:00,
2013-09-03 00:15:00,72.2,71.3,29.74,SSE,150,0.0,0.0,97,0.00,,,0.00,Wunderground v.1.15,2013-09-03 04:15:00,
2013-09-03 00:25:00,72.1,70.9,29.74,SSE,149,0.0,0.0,96,0.00,,,0.00,Wunderground v.1.15,2013-09-03 04:25:00,
2013-09-03 00:30:00,72.0,71.1,29.73,SSE,150,0.0,0.0,97,0.00,,,0.00,Wunderground v.1.15,2013-09-03 04:30:00,
2013-09-03 00:40:00,71.6,70.7,29.74,SSE,149,0.0,0.0,97,0.00,,,0.00,Wunderground v.1.15,2013-09-03 04:40:00,
2013-09-03 00:50:00,71.4,70.5,29.74,SSE,150,0.0,0.0,97,0.00,,,0.00,Wunderground v.1.15,2013-09-03 04:50:00,
2013-09-03 00:55:00,71.4,70.5,29.74,SSE,150,0.0,0.0,97,0.00,,,0.00,Wunderground v.1.15,2013-09-03 04:55:00,
2013-09-03 01:05:00,71.3,70.4,29.74,SSE,150,0.0,0.0,97,0.00,,,0.00,Wunderground v.1.15,2013-09-03 05:05:00,
2013-09-03 01:15:00,71.2,70.3,29.73,SSE,150,0.0,0.0,97,0.00,,,0.00,Wunderground v.1.15,2013-09-03 05:15:00,
2013-09-03 01:25:00,71.3,70.4,29.73,SSE,150,0.0,0.0,97,0.00,,,0.00,Wunderground v.1.15,2013-09-03 05:25:00,
2013-09-03 01:35:00,71.3,70.1,29.73,SSE,150,0.0,0.0,96,0.00,,,0.00,Wunderground v.1.15,2013-09-03 05:35:00,
2013-09-03 01:40:00,71.3,70.1,29.73,SSE,150,0.0,0.0,96,0.00,,,0.00,Wunderground v.1.15,2013-09-03 05:40:00,
2013-09-03 01:50:00,71.2,70.3,29.73,SSE,150,0.0,0.0,97,0.00,,,0.00,Wunderground v.1.15,2013-09-03 05:50:00,
2013-09-03 01:55:00,71.1,70.2,29.73,SSE,150,0.0,0.0,97,0.00,,,0.00,Wunderground v.1.15,2013-09-03 05:55:00,
2013-09-03 02:05:00,70.9,69.7,29.74,SSE,150,0.0,0.0,96,0.00,,,0.00,Wunderground v.1.15,2013-09-03 06:05:00,
2013-09-03 02:15:00,70.7,69.5,29.74,SSE,150,0.0,0.0,96,0.00,,,0.00,Wunderground v.1.15,2013-09-03 06:15:00,
2013-09-03 02:25:00,70.6,69.7,29.73,SSE,150,0.0,0.0,97,0.00,,,0.00,Wunderground v.1.15,2013-09-03 06:25:00,
2013-09-03 02:30:00,70.6,69.7,29.73,SSE,150,0.0,0.0,97,0.00,,,0.00,Wunderground v.1.15,2013-09-03 06:30:00,
2013-09-03 02:40:00,70.3,69.4,29.72,SSE,150,0.0,0.0,97,0.00,,,0.00,Wunderground v.1.15,2013-09-03 06:40:00,
2013-09-03 02:50:00,70.1,69.2,29.72,SSE,150,0.0,0.0,97,0.00,,,0.00,Wunderground v.1.15,2013-09-03 06:50:00,
2013-09-03 02:55:00,70.1,69.5,29.72,SSE,150,0.0,0.0,98,0.00,,,0.00,Wunderground v.1.15,2013-09-03 06:55:00,
2013-09-03 03:05:00,70.1,69.5,29.73,SSE,149,0.0,0.0,98,0.00,,,0.00,Wunderground v.1.15,2013-09-03 07:05:00,
2013-09-03 03:15:00,70.1,69.2,29.72,SSE,150,0.0,0.0,97,0.00,,,0.00,Wunderground v.1.15,2013-09-03 07:15:00,
2013-09-03 03:25:00,70.1,69.2,29.72,SSE,150,0.0,0.0,97,0.00,,,0.00,Wunderground v.1.15,2013-09-03 07:25:00,
2013-09-03 03:30:00,70.0,69.4,29.72,SSE,150,0.0,0.0,98,0.00,,,0.00,Wunderground v.1.15,2013-09-03 07:30:00,
2013-09-03 03:40:00,70.0,69.4,29.72,SSE,150,0.0,0.0,98,0.00,,,0.00,Wunderground v.1.15,2013-09-03 07:40:00,
2013-09-03 03:45:00,70.1,69.5,29.72,SSE,150,0.0,0.0,98,0.00,,,0.00,Wunderground v.1.15,2013-09-03 07:45:00,
2013-09-03 03:55:00,69.9,69.3,29.72,SSE,150,0.0,0.0,98,0.00,,,0.00,Wunderground v.1.15,2013-09-03 07:55:00,
2013-09-03 04:05:00,69.8,69.2,29.72,SSE,151,0.0,0.0,98,0.00,,,0.00,Wunderground v.1.15,2013-09-03 08:05:00,
2013-09-03 04:15:00,69.8,69.2,29.73,SSE,150,0.0,0.0,98,0.00,,,0.00,Wunderground v.1.15,2013-09-03 08:15:00,
2013-09-03 04:20:00,69.7,69.1,29.73,SSE,151,0.0,0.0,98,0.00,,,0.00,Wunderground v.1.15,2013-09-03 08:20:00,
2013-09-03 04:30:00,69.6,69.0,29.73,SSE,150,0.0,0.0,98,0.00,,,0.00,Wunderground v.1.15,2013-09-03 08:30:00,
2013-09-03 04:40:00,69.5,68.9,29.73,SSE,150,0.0,0.0,98,0.00,,,0.00,Wunderground v.1.15,2013-09-03 08:40:00,
2013-09-03 04:45:00,69.4,68.8,29.73,SSE,150,0.0,0.0,98,0.00,,,0.00,Wunderground v.1.15,2013-09-03 08:45:00,
2013-09-03 04:55:00,69.2,68.6,29.74,SSE,150,0.0,0.0,98,0.00,,,0.00,Wunderground v.1.15,2013-09-03 08:55:00,
2013-09-03 05:00:00,69.2,68.6,29.74,SSE,150,0.0,0.0,98,0.00,,,0.00,Wunderground v.1.15,2013-09-03 09:00:00,
2013-09-03 05:05:00,69.2,68.6,29.74,SSE,151,0.0,0.0,98,0.00,,,0.00,Wunderground v.1.15,2013-09-03 09:05:00,
2013-09-03 05:15:00,69.0,68.4,29.74,SSE,151,0.0,0.0,98,0.00,,,0.00,Wunderground v.1.15,2013-09-03 09:15:00,
2013-09-03 05:20:00,68.9,68.3,29.74,SSE,151,0.0,0.0,98,0.00,,,0.00,Wunderground v.1.15,2013-09-03 09:20:00,
2013-09-03 05:30:00,68.7,68.1,29.75,SSE,150,0.0,0.0,98,0.00,,,0.00,Wunderground v.1.15,2013-09-03 09:30:00,
2013-09-03 05:35:00,68.6,68.0,29.75,SSE,150,0.0,0.0,98,0.00,,,0.00,Wunderground v.1.15,2013-09-03 09:35:00,
2013-09-03 05:45:00,68.6,68.0,29.75,SSE,150,0.0,0.0,98,0.00,,,0.00,Wunderground v.1.15,2013-09-03 09:45:00,
2013-09-03 05:50:00,68.6,68.0,29.75,SSE,150,0.0,0.0,98,0.00,,,0.00,Wunderground v.1.15,2013-09-03 09:50:00,
2013-09-03 06:00:00,68.5,67.9,29.75,SSE,150,0.0,0.0,98,0.00,,,0.00,Wunderground v.1.15,2013-09-03 10:00:00,
2013-09-03 06:05:00,68.4,67.8,29.75,SSE,151,0.0,0.0,98,0.00,,,0.00,Wunderground v.1.15,2013-09-03 10:05:00,
2013-09-03 06:15:00,68.3,67.7,29.76,SSE,151,0.0,0.0,98,0.00,,,0.00,Wunderground v.1.15,2013-09-03 10:15:00,
2013-09-03 06:20:00,68.3,67.7,29.76,SSE,150,0.0,0.0,98,0.00,,,0.00,Wunderground v.1.15,2013-09-03 10:20:00,
2013-09-03 06:25:00,68.2,67.6,29.76,SSE,151,0.0,0.0,98,0.00,,,0.00,Wunderground v.1.15,2013-09-03 10:25:00,
2013-09-03 06:35:00,68.1,67.5,29.76,SSE,150,0.0,0.0,98,0.00,,,0.00,Wunderground v.1.15,2013-09-03 10:35:00,
2013-09-03 06:45:00,68.1,67.5,29.76,SSE,150,0.0,0.0,98,0.00,,,0.00,Wunderground v.1.15,2013-09-03 10:45:00,
2013-09-03 06:50:00,68.0,67.4,29.76,SSE,150,0.0,0.0,98,0.00,,,0.00,Wunderground v.1.15,2013-09-03 10:50:00,
2013-09-03 07:00:00,67.9,67.3,29.77,SSE,150,0.0,0.0,98,0.00,,,0.00,Wunderground v.1.15,2013-09-03 11:00:00,
2013-09-03 07:05:00,67.9,67.3,29.77,SSE,150,0.0,0.0,98,0.00,,,0.00,Wunderground v.1.15,2013-09-03 11:05:00,
2013-09-03 07:15:00,67.9,67.3,29.78,SSE,150,0.0,0.0,98,0.00,,,0.00,Wunderground v.1.15,2013-09-03 11:15:00,
2013-09-03 07:25:00,67.9,67.3,29.78,NE,47,0.0,0.0,98,0.00,,,0.00,Wunderground v.1.15,2013-09-03 11:25:00,
2013-09-03 07:35:00,68.0,67.4,29.79,NE,45,0.0,0.0,98,0.00,,,0.00,Wunderground v.1.15,2013-09-03 11:35:00,
2013-09-03 07:40:00,68.1,67.5,29.79,NE,47,0.0,0.0,98,0.00,,,0.00,Wunderground v.1.15,2013-09-03 11:40:00,
2013-09-03 07:50:00,68.3,67.7,29.79,NE,46,0.0,0.0,98,0.00,,,0.00,Wunderground v.1.15,2013-09-03 11:50:00,
2013-09-03 07:55:00,68.5,67.9,29.79,NE,47,0.0,0.0,98,0.00,,,0.00,Wunderground v.1.15,2013-09-03 11:55:00,
2013-09-03 08:05:00,69.1,68.2,29.80,NE,45,0.0,0.0,97,0.00,,,0.00,Wunderground v.1.15,2013-09-03 12:05:00,
2013-09-03 08:15:00,69.5,68.0,29.80,NE,46,0.0,0.0,95,0.00,,,0.00,Wunderground v.1.15,2013-09-03 12:15:00,
2013-09-03 08:25:00,69.9,68.1,29.80,NE,46,0.0,0.0,94,0.00,,,0.00,Wunderground v.1.15,2013-09-03 12:25:00,
2013-09-03 08:30:00,70.1,68.3,29.80,NE,45,0.0,0.0,94,0.00,,,0.00,Wunderground v.1.15,2013-09-03 12:30:00,
2013-09-03 08:40:00,70.6,69.4,29.80,NE,46,0.0,0.0,96,0.00,,,0.00,Wunderground v.1.15,2013-09-03 12:40:00,
2013-09-03 08:45:00,70.8,69.3,29.80,NE,46,0.0,0.0,95,0.00,,,0.00,Wunderground v.1.15,2013-09-03 12:45:00,
2013-09-03 08:55:00,71.1,69.6,29.80,NE,46,0.0,0.0,95,0.00,,,0.00,Wunderground v.1.15,2013-09-03 12:55:00,
2013-09-03 09:00:00,71.3,69.5,29.81,NE,46,0.0,0.0,94,0.00,,,0.00,Wunderground v.1.15,2013-09-03 13:00:00,
2013-09-03 09:05:00,71.5,70.0,29.81,NE,46,0.0,0.0,95,0.00,,,0.00,Wunderground v.1.15,2013-09-03 13:05:00,
2013-09-03 09:15:00,71.9,70.1,29.81,NE,45,0.0,0.0,94,0.00,,,0.00,Wunderground v.1.15,2013-09-03 13:15:00,
2013-09-03 09:20:00,72.1,70.3,29.81,NE,45,0.0,0.0,94,0.00,,,0.00,Wunderground v.1.15,2013-09-03 13:20:00,
2013-09-03 09:30:00,72.5,70.7,29.82,NE,45,0.0,0.0,94,0.00,,,0.00,Wunderground v.1.15,2013-09-03 13:30:00,
2013-09-03 09:35:00,72.6,70.8,29.82,NE,45,0.0,0.0,94,0.00,,,0.00,Wunderground v.1.15,2013-09-03 13:35:00,
2013-09-03 09:45:00,73.0,71.2,29.82,NE,45,0.0,0.0,94,0.00,,,0.00,Wunderground v.1.15,2013-09-03 13:45:00,
2013-09-03 09:50:00,73.1,71.0,29.83,NE,45,0.0,0.0,93,0.00,,,0.00,Wunderground v.1.15,2013-09-03 13:50:00,
2013-09-03 10:00:00,73.6,71.4,29.83,NE,45,0.0,0.0,93,0.00,,,0.00,Wunderground v.1.15,2013-09-03 14:00:00,
2013-09-03 10:05:00,73.9,71.4,29.83,NE,45,0.0,0.0,92,0.00,,,0.00,Wunderground v.1.15,2013-09-03 14:05:00,
2013-09-03 10:15:00,74.6,72.4,29.83,NE,45,0.0,0.0,93,0.00,,,0.00,Wunderground v.1.15,2013-09-03 14:15:00,
2013-09-03 10:20:00,74.8,72.0,29.83,NE,45,0.0,0.0,91,0.00,,,0.00,Wunderground v.1.15,2013-09-03 14:20:00,
2013-09-03 10:25:00,75.1,72.3,29.83,NE,45,0.0,0.0,91,0.00,,,0.00,Wunderground v.1.15,2013-09-03 14:25:00,
2013-09-03 10:35:00,75.5,72.4,29.83,NE,46,0.0,0.0,90,0.00,,,0.00,Wunderground v.1.15,2013-09-03 14:35:00,
2013-09-03 10:45:00,75.7,71.9,29.83,NE,45,0.0,0.0,88,0.00,,,0.00,Wunderground v.1.15,2013-09-03 14:45:00,
2013-09-03 10:50:00,75.7,71.9,29.83,NE,45,0.0,0.0,88,0.00,,,0.00,Wunderground v.1.15,2013-09-03 14:50:00,
2013-09-03 11:00:00,75.7,71.6,29.83,NE,45,0.0,0.0,87,0.00,,,0.00,Wunderground v.1.15,2013-09-03 15:00:00,
2013-09-03 11:05:00,76.0,72.2,29.83,NE,45,0.0,0.0,88,0.00,,,0.00,Wunderground v.1.15,2013-09-03 15:05:00,
2013-09-03 11:15:00,76.5,72.7,29.83,NE,46,0.0,0.0,88,0.00,,,0.00,Wunderground v.1.15,2013-09-03 15:15:00,
2013-09-03 11:25:00,76.7,71.8,29.83,SW,236,0.0,1.0,85,0.00,,,0.00,Wunderground v.1.15,2013-09-03 15:25:00,
2013-09-03 11:35:00,77.0,71.1,29.83,SW,236,0.0,0.0,82,0.00,,,0.00,Wunderground v.1.15,2013-09-03 15:35:00,
2013-09-03 11:40:00,77.3,70.6,29.83,SW,236,0.0,0.0,80,0.00,,,0.00,Wunderground v.1.15,2013-09-03 15:40:00,
2013-09-03 11:50:00,77.9,68.9,29.83,SW,230,0.0,1.0,74,0.00,,,0.00,Wunderground v.1.15,2013-09-03 15:50:00,
2013-09-03 11:55:00,78.7,70.9,29.83,SW,233,0.0,2.0,77,0.00,,,0.00,Wunderground v.1.15,2013-09-03 15:55:00,
2013-09-03 12:05:00,79.6,72.1,29.83,SE,131,0.0,2.0,78,0.00,,,0.00,Wunderground v.1.15,2013-09-03 16:05:00,
2013-09-03 12:15:00,80.2,70.4,29.83,SE,138,0.0,0.0,72,0.00,,,0.00,Wunderground v.1.15,2013-09-03 16:15:00,
2013-09-03 12:25:00,80.3,71.6,29.83,SE,137,0.0,0.0,75,0.00,,,0.00,Wunderground v.1.15,2013-09-03 16:25:00,
2013-09-03 12:30:00,80.4,69.7,29.83,SE,137,0.0,0.0,70,0.00,,,0.00,Wunderground v.1.15,2013-09-03 16:30:00,
2013-09-03 12:40:00,80.6,72.7,29.82,SE,138,0.0,0.0,77,0.00,,,0.00,Wunderground v.1.15,2013-09-03 16:40:00,
2013-09-03 12:45:00,80.7,72.0,29.82,SE,137,0.0,0.0,75,0.00,,,0.00,Wunderground v.1.15,2013-09-03 16:45:00,
2013-09-03 12:55:00,79.9,72.0,29.82,SE,138,0.0,0.0,77,0.00,,,0.00,Wunderground v.1.15,2013-09-03 16:55:00,
2013-09-03 13:05:00,79.3,69.1,29.82,SE,137,0.0,0.0,71,0.00,,,0.00,Wunderground v.1.15,2013-09-03 17:05:00,
2013-09-03 13:15:00,80.2,72.3,29.82,SE,137,0.0,0.0,77,0.00,,,0.00,Wunderground v.1.15,2013-09-03 17:15:00,
2013-09-03 13:20:00,80.5,72.6,29.82,SE,138,0.0,0.0,77,0.00,,,0.00,Wunderground v.1.15,2013-09-03 17:20:00,
2013-09-03 13:30:00,81.3,71.0,29.82,SW,221,0.0,2.0,71,0.00,,,0.00,Wunderground v.1.15,2013-09-03 17:30:00,
2013-09-03 13:35:00,82.0,71.7,29.82,SW,221,0.0,2.0,71,0.00,,,0.00,Wunderground v.1.15,2013-09-03 17:35:00,
2013-09-03 13:45:00,82.6,70.5,29.82,WSW,253,0.0,0.0,67,0.00,,,0.00,Wunderground v.1.15,2013-09-03 17:45:00,
2013-09-03 13:50:00,82.3,71.1,29.81,WSW,252,0.0,0.0,69,0.00,,,0.00,Wunderground v.1.15,2013-09-03 17:50:00,
2013-09-03 14:00:00,82.3,72.4,29.81,WSW,253,0.0,0.0,72,0.00,,,0.00,Wunderground v.1.15,2013-09-03 18:00:00,
2013-09-03 14:05:00,82.6,71.0,29.81,WSW,252,0.0,0.0,68,0.00,,,0.00,Wunderground v.1.15,2013-09-03 18:05:00,
2013-09-03 14:15:00,83.2,73.2,29.81,WSW,252,0.0,1.0,72,0.00,,,0.00,Wunderground v.1.15,2013-09-03 18:15:00,
2013-09-03 14:20:00,82.9,73.8,29.81,WSW,251,0.0,0.0,74,0.00,,,0.00,Wunderground v.1.15,2013-09-03 18:20:00,
2013-09-03 14:25:00,82.5,72.6,29.80,WSW,252,0.0,0.0,72,0.00,,,0.00,Wunderground v.1.15,2013-09-03 18:25:00,
2013-09-03 14:35:00,82.1,73.4,29.80,WSW,251,0.0,0.0,75,0.00,,,0.00,Wunderground v.1.15,2013-09-03 18:35:00,
2013-09-03 14:40:00,82.4,74.1,29.80,SW,228,0.0,3.0,76,0.00,,,0.00,Wunderground v.1.15,2013-09-03 18:40:00,
2013-09-03 14:50:00,83.1,70.1,29.80,SW,222,0.0,0.0,65,0.00,,,0.00,Wunderground v.1.15,2013-09-03 18:50:00,
2013-09-03 15:00:00,84.6,70.1,29.79,West,263,0.0,0.0,62,0.00,,,0.00,Wunderground v.1.15,2013-09-03 19:00:00,
2013-09-03 15:05:00,85.5,73.3,29.79,West,262,0.0,0.0,67,0.00,,,0.00,Wunderground v.1.15,2013-09-03 19:05:00,
2013-09-03 15:15:00,84.1,74.1,29.79,West,264,0.0,0.0,72,0.00,,,0.00,Wunderground v.1.15,2013-09-03 19:15:00,
2013-09-03 15:25:00,82.7,72.7,29.79,West,264,0.0,0.0,72,0.00,,,0.00,Wunderground v.1.15,2013-09-03 19:25:00,
2013-09-03 15:35:00,82.1,72.2,29.79,West,264,0.0,0.0,72,0.00,,,0.00,Wunderground v.1.15,2013-09-03 19:35:00,
2013-09-03 15:40:00,81.7,71.8,29.78,West,264,0.0,0.0,72,0.00,,,0.00,Wunderground v.1.15,2013-09-03 19:40:00,
2013-09-03 15:50:00,81.2,72.1,29.78,West,264,0.0,0.0,74,0.00,,,0.00,Wunderground v.1.15,2013-09-03 19:50:00,
2013-09-03 15:55:00,81.2,72.9,29.78,West,264,0.0,0.0,76,0.00,,,0.00,Wunderground v.1.15,2013-09-03 19:55:00,
2013-09-03 16:05:00,81.7,73.0,29.78,West,264,0.0,0.0,75,0.00,,,0.00,Wunderground v.1.15,2013-09-03 20:05:00,
2013-09-03 16:15:00,82.4,72.5,29.78,West,264,0.0,0.0,72,0.00,,,0.00,Wunderground v.1.15,2013-09-03 20:15:00,
2013-09-03 16:25:00,83.8,72.5,29.78,West,264,0.0,0.0,69,0.00,,,0.00,Wunderground v.1.15,2013-09-03 20:25:00,
2013-09-03 16:30:00,84.0,72.3,29.78,West,264,0.0,0.0,68,0.00,,,0.00,Wunderground v.1.15,2013-09-03 20:30:00,
2013-09-03 16:40:00,83.8,72.5,29.78,West,264,0.0,0.0,69,0.00,,,0.00,Wunderground v.1.15,2013-09-03 20:40:00,
2013-09-03 16:50:00,83.2,72.4,29.78,West,264,0.0,0.0,70,0.00,,,0.00,Wunderground v.1.15,2013-09-03 20:50:00,
2013-09-03 16:55:00,82.6,72.7,29.78,West,264,0.0,0.0,72,0.00,,,0.00,Wunderground v.1.15,2013-09-03 20:55:00,
2013-09-03 17:05:00,81.8,71.9,29.78,West,264,0.0,0.0,72,0.00,,,0.00,Wunderground v.1.15,2013-09-03 21:05:00,
2013-09-03 17:15:00,81.6,72.1,29.78,West,264,0.0,0.0,73,0.00,,,0.00,Wunderground v.1.15,2013-09-03 21:15:00,
2013-09-03 17:20:00,81.2,71.7,29.78,West,264,0.0,0.0,73,0.00,,,0.00,Wunderground v.1.15,2013-09-03 21:20:00,
2013-09-03 17:30:00,80.8,71.3,29.79,West,265,0.0,0.0,73,0.00,,,0.00,Wunderground v.1.15,2013-09-03 21:30:00,
2013-09-03 17:40:00,80.5,71.8,29.79,West,265,0.0,0.0,75,0.00,,,0.00,Wunderground v.1.15,2013-09-03 21:40:00,
2013-09-03 17:45:00,80.4,71.7,29.80,West,266,0.0,0.0,75,0.00,,,0.00,Wunderground v.1.15,2013-09-03 21:45:00,
2013-09-03 17:55:00,80.0,71.4,29.80,West,265,0.0,0.0,75,0.00,,,0.00,Wunderground v.1.15,2013-09-03 21:55:00,
2013-09-03 18:00:00,79.6,71.4,29.80,West,266,0.0,0.0,76,0.00,,,0.00,Wunderground v.1.15,2013-09-03 22:00:00,
2013-09-03 18:05:00,79.3,71.5,29.81,West,265,0.0,0.0,77,0.00,,,0.00,Wunderground v.1.15,2013-09-03 22:05:00,
2013-09-03 18:15:00,78.7,70.9,29.81,West,266,0.0,0.0,77,0.00,,,0.00,Wunderground v.1.15,2013-09-03 22:15:00,
2013-09-03 18:20:00,78.4,71.0,29.81,West,266,0.0,0.0,78,0.00,,,0.00,Wunderground v.1.15,2013-09-03 22:20:00,
2013-09-03 18:30:00,78.1,72.2,29.81,West,266,0.0,0.0,82,0.00,,,0.00,Wunderground v.1.15,2013-09-03 22:30:00,
2013-09-03 18:35:00,77.9,72.0,29.81,West,266,0.0,0.0,82,0.00,,,0.00,Wunderground v.1.15,2013-09-03 22:35:00,
2013-09-03 18:45:00,77.1,70.8,29.81,West,266,0.0,0.0,81,0.00,,,0.00,Wunderground v.1.15,2013-09-03 22:45:00,
2013-09-03 18:55:00,76.8,70.9,29.82,West,266,0.0,0.0,82,0.00,,,0.00,Wunderground v.1.15,2013-09-03 22:55:00,
2013-09-03 19:00:00,76.7,70.4,29.82,West,268,0.0,0.0,81,0.00,,,0.00,Wunderground v.1.15,2013-09-03 23:00:00,
2013-09-03 19:05:00,76.5,70.6,29.82,West,269,0.0,0.0,82,0.00,,,0.00,Wunderground v.1.15,2013-09-03 23:05:00,
2013-09-03 19:15:00,76.2,70.3,29.82,West,269,0.0,0.0,82,0.00,,,0.00,Wunderground v.1.15,2013-09-03 23:15:00,
2013-09-03 19:20:00,76.0,70.5,29.82,West,269,0.0,0.0,83,0.00,,,0.00,Wunderground v.1.15,2013-09-03 23:20:00,
2013-09-03 19:30:00,75.5,70.3,29.83,West,269,0.0,0.0,84,0.00,,,0.00,Wunderground v.1.15,2013-09-03 23:30:00,
2013-09-03 19:35:00,75.3,70.5,29.84,West,269,0.0,0.0,85,0.00,,,0.00,Wunderground v.1.15,2013-09-03 23:35:00,
2013-09-03 19:45:00,74.8,70.3,29.84,West,269,0.0,0.0,86,0.00,,,0.00,Wunderground v.1.15,2013-09-03 23:45:00,
2013-09-03 19:55:00,74.5,70.7,29.85,West,269,0.0,0.0,88,0.00,,,0.00,Wunderground v.1.15,2013-09-03 23:55:00,
2013-09-03 20:00:00,74.4,70.3,29.85,West,269,0.0,0.0,87,0.00,,,0.00,Wunderground v.1.15,2013-09-04 00:00:00,
2013-09-03 20:05:00,74.3,70.5,29.85,West,270,0.0,0.0,88,0.00,,,0.00,Wunderground v.1.15,2013-09-04 00:05:00,
2013-09-03 20:15:00,74.1,71.0,29.86,West,269,0.0,0.0,90,0.00,,,0.00,Wunderground v.1.15,2013-09-04 00:15:00,
2013-09-03 20:20:00,73.9,70.8,29.86,West,269,0.0,0.0,90,0.00,,,0.00,Wunderground v.1.15,2013-09-04 00:20:00,
2013-09-03 20:30:00,73.5,69.7,29.86,West,270,0.0,0.0,88,0.00,,,0.00,Wunderground v.1.15,2013-09-04 00:30:00,
2013-09-03 20:35:00,73.4,69.0,29.86,West,270,0.0,0.0,86,0.00,,,0.00,Wunderground v.1.15,2013-09-04 00:35:00,
2013-09-03 20:45:00,73.0,68.9,29.87,West,270,0.0,0.0,87,0.00,,,0.00,Wunderground v.1.15,2013-09-04 00:45:00,
2013-09-03 20:55:00,72.9,69.8,29.87,West,270,0.0,0.0,90,0.00,,,0.00,Wunderground v.1.15,2013-09-04 00:55:00,
2013-09-03 21:00:00,72.7,69.6,29.88,West,270,0.0,0.0,90,0.00,,,0.00,Wunderground v.1.15,2013-09-04 01:00:00,
2013-09-03 21:05:00,72.5,69.7,29.88,West,270,0.0,0.0,91,0.00,,,0.00,Wunderground v.1.15,2013-09-04 01:05:00,
2013-09-03 21:14:00,72.1,69.0,29.88,West,270,0.0,0.0,90,0.00,,,0.00,Wunderground v.1.15,2013-09-04 01:14:00,
2013-09-03 21:20:00,72.0,68.9,29.89,West,270,0.0,0.0,90,0.00,,,0.00,Wunderground v.1.15,2013-09-04 01:20:00,
2013-09-03 21:25:00,71.8,68.7,29.89,West,270,0.0,0.0,90,0.00,,,0.00,Wunderground v.1.15,2013-09-04 01:25:00,
2013-09-03 21:35:00,71.7,69.3,29.89,West,270,0.0,0.0,92,0.00,,,0.00,Wunderground v.1.15,2013-09-04 01:35:00,
2013-09-03 21:45:00,71.3,69.2,29.90,West,270,0.0,0.0,93,0.00,,,0.00,Wunderground v.1.15,2013-09-04 01:45:00,
2013-09-03 21:50:00,71.3,69.2,29.90,West,270,0.0,0.0,93,0.00,,,0.00,Wunderground v.1.15,2013-09-04 01:50:00,
2013-09-03 22:00:00,70.8,67.7,29.90,West,270,0.0,0.0,90,0.00,,,0.00,Wunderground v.1.15,2013-09-04 02:00:00,
2013-09-03 22:05:00,70.5,67.7,29.90,West,270,0.0,0.0,91,0.00,,,0.00,Wunderground v.1.15,2013-09-04 02:05:00,
2013-09-03 22:14:00,70.1,67.7,29.90,West,270,0.0,0.0,92,0.00,,,0.00,Wunderground v.1.15,2013-09-04 02:14:00,
2013-09-03 22:20:00,69.9,67.8,29.90,West,270,0.0,0.0,93,0.00,,,0.00,Wunderground v.1.15,2013-09-04 02:20:00,
2013-09-03 22:30:00,69.2,66.8,29.90,West,270,0.0,0.0,92,0.00,,,0.00,Wunderground v.1.15,2013-09-04 02:30:00,
2013-09-03 22:35:00,68.9,66.5,29.90,West,270,0.0,0.0,92,0.00,,,0.00,Wunderground v.1.15,2013-09-04 02:35:00,
2013-09-03 22:45:00,68.4,64.4,29.90,West,270,0.0,0.0,87,0.00,,,0.00,Wunderground v.1.15,2013-09-04 02:45:00,
2013-09-03 22:50:00,68.6,64.9,29.90,West,271,0.0,0.0,88,0.00,,,0.00,Wunderground v.1.15,2013-09-04 02:50:00,
2013-09-03 23:00:00,68.8,65.4,29.91,West,270,0.0,0.0,89,0.00,,,0.00,Wunderground v.1.15,2013-09-04 03:00:00,
2013-09-03 23:05:00,68.8,64.4,29.91,West,270,0.0,0.0,86,0.00,,,0.00,Wunderground v.1.15,2013-09-04 03:05:00,
2013-09-03 23:15:00,68.6,63.2,29.92,West,270,0.0,0.0,83,0.00,,,0.00,Wunderground v.1.15,2013-09-04 03:15:00,
2013-09-03 23:20:00,68.5,62.8,29.92,West,271,0.0,0.0,82,0.00,,,0.00,Wunderground v.1.15,2013-09-04 03:20:00,
2013-09-03 23:25:00,68.6,62.5,29.92,West,271,0.0,0.0,81,0.00,,,0.00,Wunderground v.1.15,2013-09-04 03:25:00,
2013-09-03 23:35:00,68.8,63.1,29.92,West,271,0.0,0.0,82,0.00,,,0.00,Wunderground v.1.15,2013-09-04 03:35:00,
2013-09-03 23:45:00,68.8,61.7,29.92,West,271,0.0,0.0,78,0.00,,,0.00,Wunderground v.1.15,2013-09-04 03:45:00,
2013-09-03 23:50:00,68.8,61.7,29.92,West,271,0.0,0.0,78,0.00,,,0.00,Wunderground v.1.15,2013-09-04 03:50:00,